Wind_Speed
10 10 9 8 8 7 8 8 7 7 8 8 8 8 8 8 8 7 7 6 6 5 5 4 4 4 4 3 2 2 2 2 2 2 2 2 2 2 2 3 3 3 4
12 11 10 10 9 8 8 8 8 8 8 8 8 8 8 9 8 8 7 7 7 7 6 6 5 5 5 4 4 4 4 3 3 4 4 3 3 4 4 4 4 4 5
14 13 12 11 10 10 10 9 9 9 9 9 9 10 9 9 9 9 9 9 8 8 8 7 7 7 6 6 6 6 5 5 5 5 5 5 5 5 5 5 5 6 6
15 14 13 13 12 11 11 11 10 10 11 11 11 11 11 10 10 10 10 10 10 10 10 9 8 8 8 8 8 8 7 7 7 7 7 7 7 7 7 7 7 7 7
17 16 15 14 14 13 13 13 12 12 12 12 12 12 12 12 12 11 11 11 12 12 12 11 11 10 10 10 9 9 9 9 9 9 9 9 9 9 9 9 9 9 9
19 18 17 16 15 15 14 14 14 14 13 13 13 13 14 14 14 13 13 13 13 13 13 13 13 13 12 12 11 11 11 11 11 11 11 11 10 11 11 11 11 10 10
20 19 18 17 17 16 16 16 16 15 15 15 15 15 15 15 16 16 15 15 15 15 15 15 15 14 14 14 14 13 13 13 12 12 13 13 12 12 12 12 12 12 12
21 21 20 19 19 18 18 18 18 18 17 17 17 17 17 17 17 17 17 17 17 17 17 17 16 16 16 16 16 16 16 15 15 15 14 14 14 14 14 14 14 14 14
23 22 21 21 21 20 20 20 20 20 20 20 19 19 19 19 19 18 18 19 19 19 19 19 18 18 18 18 18 18 18 18 17 17 17 16 16 16 16 16 16 16 16
24 24 24 23 22 22 22 22 22 22 22 22 22 22 22 22 22 21 21 21 20 20 20 21 20 20 20 20 20 21 20 20 20 19 19 18 18 18 18 18 18 18 17
26 26 25 25 24 24 24 24 24 24 24 24 24 24 24 24 24 24 23 23 23 22 22 22 22 22 22 22 23 23 23 22 22 22 21 21 20 20 21 20 20 20 19
28 27 27 27 27 26 26 26 26 26 26 26 26 26 26 26 26 26 25 25 26 26 25 25 24 24 24 24 25 25 25 24 24 24 23 23 23 23 23 22 22 22 22
30 30 30 30 29 29 29 29 29 28 28 28 28 28 28 28 27 27 27 27 27 27 27 27 27 26 26 26 26 26 26 26 26 25 25 25 25 25 25 24 24 24 24
33 32 32 32 32 31 31 31 31 30 31 31 30 30 30 30 30 30 29 29 29 29 29 29 29 28 28 28 28 27 27 27 27 27 27 27 27 27 27 27 26 26 26
35 35 34 35 34 34 34 33 33 33 33 33 33 33 33 33 32 32 31 31 31 31 31 31 30 30 30 30 29 29 29 29 29 28 29 29 29 29 29 29 29 28 28
37 37 36 36 36 36 36 35 35 35 35 35 34 34 34 34 34 34 34 33 33 33 33 33 33 32 32 31 31 30 30 30 31 30 31 31 31 31 31 31 30 30 30
38 39 38 38 38 38 38 38 37 37 37 36 37 36 36 36 36 36 36 35 35 35 35 35 35 35 34 33 33 32 32 32 32 32 33 33 33 33 33 33 33 32 32
40 40 40 40 40 39 39 39 39 39 39 38 38 38 38 38 37 37 37 37 37 37 37 37 36 36 36 36 35 35 34 34 34 35 35 35 35 35 35 34 34 34 35
41 41 41 41 41 41 40 40 39 40 40 40 40 40 40 39 39 38 38 38 39 39 39 39 39 38 38 38 38 37 37 37 37 37 37 37 36 36 37 37 37 36 37
42 42 42 43 43 43 42 41 41 41 42 42 41 41 41 40 40 40 40 40 40 40 41 41 40 40 40 40 40 40 40 39 39 39 39 39 39 39 39 39 39 39 39
43 43 43 43 44 45 44 44 43 43 43 43 43 42 42 42 42 41 41 41 41 42 42 42 42 42 43 43 43 42 42 42 41 41 41 41 41 41 41 41 42 41 41
44 44 44 44 44 45 44 45 45 45 44 44 44 44 44 44 43 43 42 42 42 42 43 43 44 44 44 44 43 43 44 43 43 43 42 42 42 42 42 42 43 43 43
44 45 44 44 45 45 44 45 46 47 46 46 46 46 46 46 45 44 44 44 44 44 44 44 44 44 44 44 45 45 44 44 44 44 44 44 44 44 43 43 44 45 45
44 44 44 45 45 46 46 46 46 47 47 47 47 47 48 47 47 46 46 46 46 45 45 45 45 45 46 46 46 46 46 46 46 45 45 45 45 45 44 45 45 45 45
42 43 43 45 46 46 47 47 47 47 47 47 47 48 48 49 48 48 48 47 47 47 46 46 46 46 47 47 47 47 48 48 48 48 47 47 47 47 46 46 45 46 45
41 41 42 43 44 45 46 46 46 47 47 48 48 48 49 49 49 49 49 49 49 48 48 48 48 48 47 47 47 48 49 49 49 50 49 49 49 49 49 48 47 47 47
Wind_Direction
223 222 219 215 212 211 205 203 204 201 200 196 193 194 196 196 197 198 201 201 201 204 208 205 201 203 204 211 220 233 250 269 277 281 288 294 299 302 306 314 321 326 330
226 225 223 222 220 219 215 214 213 210 208 206 203 203 205 206 206 208 214 217 217 217 220 222 222 223 224 227 235 243 251 261 266 270 275 279 283 286 289 295 300 305 312
228 227 227 226 225 224 221 220 220 216 215 214 213 211 212 213 215 218 224 228 227 227 228 230 232 232 235 238 243 248 254 260 265 268 272 273 276 280 284 287 290 292 298
231 230 231 230 230 227 224 224 226 224 222 221 221 220 221 223 225 228 231 234 235 235 236 239 240 240 240 243 246 250 254 259 264 270 274 276 276 278 281 284 286 286 288
233 234 235 235 234 232 230 231 233 230 227 226 226 227 229 230 233 235 237 240 242 242 243 244 245 245 245 246 249 252 255 258 263 267 270 274 275 277 279 282 283 282 282
234 235 236 237 238 238 236 235 238 237 234 232 232 234 235 238 240 241 242 244 246 246 247 248 249 249 249 250 251 254 256 258 262 264 266 269 271 273 276 278 279 278 279
235 235 235 238 239 241 241 241 242 241 241 239 238 239 241 243 245 246 245 246 247 249 249 249 251 251 252 253 254 255 257 260 262 263 265 267 269 271 274 276 277 276 277
237 236 237 239 239 242 243 244 245 245 244 244 242 243 245 246 247 248 248 248 249 251 253 252 253 254 255 256 257 257 258 260 262 263 264 267 268 270 272 275 275 275 277
239 238 239 241 242 244 245 246 247 247 245 244 245 246 247 249 249 250 250 250 251 253 253 253 254 255 256 257 258 259 260 261 261 263 265 267 267 269 271 274 273 273 276
240 241 240 241 244 245 247 247 248 249 249 248 247 249 250 252 253 254 254 253 253 254 255 255 256 256 257 258 259 259 260 262 261 263 265 266 267 268 270 272 272 272 274
241 242 242 242 245 247 248 249 250 251 250 250 249 251 252 254 255 256 256 256 256 256 257 258 257 258 259 259 259 259 260 261 261 263 264 265 267 267 268 269 270 270 272
242 242 244 244 246 248 249 250 251 251 252 252 252 254 254 255 256 256 257 257 258 258 258 258 258 259 260 260 260 260 261 261 262 262 263 265 266 267 267 268 269 270 270
244 244 244 246 247 249 250 251 252 253 253 253 254 254 256 256 257 257 258 258 258 259 259 259 259 260 260 260 261 261 261 261 261 262 263 264 265 266 267 268 269 270 270
244 245 246 247 249 250 251 252 253 254 254 254 255 255 256 257 258 258 259 259 259 259 259 259 259 260 261 262 261 261 261 261 261 262 262 263 264 266 267 267 269 270 270
246 247 248 249 251 252 253 254 255 255 255 256 256 256 257 257 258 259 260 259 259 259 258 258 258 259 260 261 262 262 262 262 261 261 262 262 264 265 266 267 268 268 269
247 248 249 251 251 251 253 255 256 256 256 256 257 257 257 257 257 258 259 259 260 260 258 258 258 258 259 260 261 262 262 262 262 263 263 264 265 266 266 266 267 267 266
248 249 250 252 253 254 255 256 257 257 256 256 256 256 256 256 256 257 258 259 259 260 259 258 259 258 259 259 260 261 262 263 264 264 264 265 265 265 266 266 267 267 266
249 250 251 253 254 256 256 257 258 258 257 256 256 256 256 257 257 258 258 258 258 259 259 259 259 258 258 259 260 261 262 263 264 265 265 265 265 265 265 265 266 267 267
250 251 253 254 255 256 257 257 258 258 258 256 256 256 257 257 258 258 258 259 258 258 258 258 259 258 259 260 260 261 262 263 265 266 265 265 266 266 265 265 266 267 268
251 253 254 255 255 256 256 258 259 258 257 256 256 257 257 257 258 259 259 259 259 259 259 259 259 259 260 261 261 261 262 262 264 266 266 265 265 266 266 266 266 266 267
251 253 255 256 256 256 257 257 258 258 257 257 257 257 257 258 258 258 259 259 259 259 259 259 260 260 260 261 262 261 262 263 263 265 266 266 266 267 268 268 268 267 267
251 253 256 257 257 257 257 257 258 257 257 258 258 257 257 257 257 258 259 259 259 260 260 260 260 260 260 260 261 261 263 263 264 265 265 266 266 267 269 269 269 268 268
252 253 255 256 257 257 258 258 259 258 257 257 257 258 257 257 257 258 259 260 260 260 260 260 260 260 260 261 261 262 262 262 264 264 264 265 266 267 268 269 270 270 269
253 254 255 255 256 257 258 258 259 258 258 257 257 258 258 257 257 258 259 260 260 261 261 260 261 261 261 262 262 263 263 263 263 264 265 266 267 267 268 270 270 270 270
254 255 255 255 256 258 259 258 258 258 257 257 257 257 257 258 258 259 259 260 260 260 261 261 261 262 262 263 264 264 264 264 264 264 264 265 266 267 268 269 269 270 269
253 255 256 257 258 259 259 258 258 258 258 257 257 258 257 258 259 260 260 259 259 260 261 261 262 262 263 263 264 265 265 265 265 264 264 264 265 266 268 268 268 269 268
Height
5858 5859 5859 5860 5861 5861 5862 5862 5862 5863 5864 5864 5864 5865 5865 5866 5866 5867 5867 5867 5867 5868 5868 5868 5869 5869 5869 5869 5869 5869 5869 5869 5869 5869 5869 5868 5868 5868 5868 5868 5868 5867 5867
5856 5857 5858 5858 5859 5860 5860 5861 5861 5862 5862 5863 5863 5864 5864 5865 5865 5866 5866 5866 5866 5867 5867 5867 5868 5868 5868 5868 5868 5868 5868 5868 5868 5868 5868 5868 5867 5867 5867 5867 5867 5866 5866
5854 5855 5856 5856 5857 5858 5859 5859 5860 5860 5861 5861 5862 5863 5863 5864 5864 5864 5865 5865 5865 5866 5866 5866 5866 5867 5867 5867 5867 5867 5867 5867 5867 5867 5867 5867 5866 5866 5866 5866 5866 5865 5865
5852 5852 5853 5854 5855 5856 5857 5858 5858 5858 5859 5860 5860 5861 5862 5862 5863 5863 5863 5864 5864 5864 5864 5865 5865 5865 5865 5866 5866 5866 5866 5866 5866 5866 5865 5865 5865 5865 5865 5865 5864 5864 5864
5849 5850 5851 5852 5853 5854 5855 5856 5856 5857 5857 5858 5858 5859 5860 5860 5861 5861 5861 5862 5862 5862 5863 5863 5863 5863 5863 5864 5864 5864 5864 5864 5864 5864 5864 5863 5863 5863 5863 5863 5863 5862 5862
5846 5847 5848 5849 5850 5851 5852 5853 5854 5854 5855 5855 5856 5857 5857 5858 5858 5859 5859 5859 5860 5860 5860 5860 5861 5861 5861 5862 5862 5862 5862 5862 5862 5862 5862 5861 5861 5861 5861 5861 5861 5861 5860
5842 5843 5845 5846 5847 5848 5849 5850 5851 5852 5852 5853 5854 5854 5854 5855 5855 5856 5856 5856 5857 5857 5857 5858 5858 5858 5859 5859 5859 5859 5859 5859 5859 5859 5859 5859 5859 5859 5859 5859 5859 5858 5858
5839 5840 5841 5842 5843 5844 5845 5846 5847 5848 5849 5850 5850 5851 5851 5852 5852 5852 5853 5853 5853 5854 5854 5854 5855 5855 5855 5856 5856 5856 5856 5856 5856 5856 5856 5856 5856 5856 5856 5856 5856 5856 5855
5834 5836 5837 5838 5839 5841 5841 5842 5843 5844 5845 5846 5847 5847 5848 5848 5848 5849 5849 5849 5850 5850 5850 5851 5851 5851 5852 5852 5852 5852 5853 5853 5853 5853 5853 5853 5853 5853 5853 5853 5853 5852 5852
5830 5831 5833 5834 5835 5836 5837 5838 5839 5840 5841 5842 5842 5843 5844 5844 5844 5844 5845 5845 5846 5846 5846 5847 5847 5847 5848 5848 5848 5848 5848 5849 5849 5849 5849 5849 5849 5849 5849 5849 5849 5849 5848
5825 5826 5828 5829 5830 5831 5832 5833 5834 5835 5836 5837 5838 5838 5839 5839 5840 5840 5840 5841 5841 5841 5842 5842 5842 5843 5843 5843 5843 5843 5844 5844 5844 5844 5844 5845 5845 5845 5845 5845 5845 5845 5844
5819 5821 5822 5824 5825 5826 5827 5828 5829 5830 5831 5832 5832 5833 5834 5834 5835 5835 5835 5836 5836 5837 5837 5837 5837 5837 5838 5838 5838 5838 5838 5839 5839 5839 5840 5840 5840 5840 5840 5840 5840 5840 5840
5813 5815 5817 5818 5819 5820 5822 5823 5823 5824 5825 5826 5826 5827 5828 5828 5829 5829 5829 5830 5830 5831 5831 5832 5832 5832 5832 5832 5832 5832 5833 5833 5833 5834 5834 5834 5835 5835 5835 5835 5835 5835 5835
5806 5808 5810 5812 5813 5814 5815 5816 5817 5818 5819 5819 5820 5821 5821 5822 5823 5823 5823 5824 5824 5825 5825 5826 5826 5826 5826 5826 5826 5827 5827 5827 5828 5828 5828 5828 5829 5829 5829 5829 5829 5829 5829
5799 5801 5803 5804 5806 5807 5808 5809 5810 5811 5812 5812 5813 5814 5814 5815 5816 5816 5816 5816 5817 5818 5818 5819 5819 5820 5820 5820 5820 5820 5821 5821 5821 5822 5822 5822 5823 5823 5823 5823 5823 5823 5823
5791 5793 5795 5797 5798 5799 5800 5801 5802 5803 5804 5805 5805 5806 5807 5807 5808 5808 5809 5809 5810 5810 5811 5812 5812 5813 5813 5813 5814 5814 5814 5815 5815 5815 5815 5816 5816 5816 5816 5816 5816 5816 5816
5782 5784 5786 5788 5789 5791 5792 5793 5794 5795 5795 5796 5797 5797 5798 5799 5800 5800 5801 5802 5802 5803 5803 5804 5804 5805 5806 5806 5807 5807 5807 5808 5808 5808 5808 5809 5809 5809 5809 5809 5809 5809 5809
5773 5775 5777 5779 5780 5782 5783 5784 5785 5785 5786 5787 5787 5788 5789 5790 5791 5792 5793 5793 5794 5795 5795 5796 5796 5797 5798 5799 5799 5800 5800 5800 5800 5801 5801 5801 5801 5802 5802 5802 5802 5802 5802
5764 5766 5767 5769 5771 5772 5773 5774 5775 5776 5776 5777 5778 5779 5780 5780 5781 5782 5784 5785 5785 5786 5787 5788 5788 5789 5790 5790 5791 5791 5792 5792 5792 5792 5793 5793 5793 5793 5794 5794 5794 5794 5794
5754 5756 5758 5759 5761 5762 5763 5764 5765 5766 5766 5767 5768 5769 5770 5771 5772 5773 5774 5775 5776 5777 5778 5779 5780 5780 5781 5782 5782 5783 5783 5783 5784 5784 5784 5784 5785 5785 5785 5785 5785 5785 5785
5744 5746 5747 5749 5750 5751 5752 5754 5755 5755 5756 5757 5758 5759 5760 5761 5762 5763 5764 5765 5766 5767 5768 5769 5770 5771 5771 5772 5772 5773 5774 5774 5774 5775 5775 5775 5775 5775 5775 5776 5776 5776 5776
5733 5735 5736 5738 5739 5740 5741 5742 5743 5744 5746 5747 5748 5749 5750 5751 5752 5753 5754 5755 5756 5757 5758 5759 5759 5760 5761 5762 5762 5763 5764 5765 5765 5765 5765 5765 5765 5765 5766 5765 5765 5765 5766
5723 5724 5725 5727 5728 5729 5730 5731 5732 5733 5734 5735 5737 5738 5739 5740 5741 5743 5744 5745 5746 5747 5748 5748 5749 5750 5751 5751 5752 5752 5753 5754 5755 5755 5755 5755 5755 5755 5755 5755 5755 5755 5755
5712 5713 5714 5716 5717 5718 5718 5719 5720 5721 5723 5724 5725 5726 5727 5729 5730 5732 5733 5734 5735 5736 5737 5737 5738 5739 5740 5740 5741 5741 5742 5742 5744 5745 5745 5745 5744 5744 5744 5744 5744 5744 5743
5701 5702 5703 5704 5705 5706 5706 5707 5708 5710 5711 5712 5713 5714 5716 5717 5719 5720 5721 5722 5723 5724 5725 5726 5727 5727 5728 5729 5729 5730 5730 5731 5731 5733 5734 5734 5734 5733 5733 5733 5733 5733 5732
5690 5691 5692 5693 5693 5694 5695 5695 5696 5698 5699 5700 5701 5702 5704 5705 5707 5708 5709 5710 5711 5712 5713 5714 5715 5715 5716 5717 5717 5718 5718 5719 5719 5720 5721 5722 5722 5722 5722 5721 5721 5721 5720